This is the latest recevied weather packets stored in our database for station/object KE8GJZ-2. If no packets are shown the sender has not sent any weather packets the latest 1 day(s).
| Time | Temp. | Humidity | Pressure | Rain* | Wind** | Luminosity | Snow |
|---|---|---|---|---|---|---|---|
| 1778085284 | 11.11° C | 44% | 1013.4 hPa | 0 mm | - | 273 W/m² | - |
| 1778084676 | 10.56° C | 52% | 1013.2 hPa | 0 mm | - | 448 W/m² | - |
| 1778083158 | 10.56° C | 47% | 1013.3 hPa | 0 mm | - | 462 W/m² | - |
| 1778082855 | 10.56° C | 48% | 1013.5 hPa | 0 mm | - | 420 W/m² | - |
| 1778081737 | 10.56° C | 46% | 1013.7 hPa | 0 mm | - | 397 W/m² | - |
| 1778080527 | 10.56° C | 49% | 1013.8 hPa | 0 mm | - | 462 W/m² | - |
| 1778080224 | 10° C | 48% | 1013.5 hPa | 0 mm | - | 453 W/m² | - |
| 1778079314 | 10° C | 46% | 1013.7 hPa | 0 mm | - | 391 W/m² | - |
| 1778078708 | 10° C | 45% | 1013.7 hPa | 0 mm | - | 353 W/m² | - |
| 1778078103 | 10° C | 49% | 1013.5 hPa | 0 mm | - | 415 W/m² | - |
| 1778074166 | 8.89° C | 58% | 1013.3 hPa | 0 mm | - | 238 W/m² | - |
| 1778073863 | 8.33° C | 57% | 1013.5 hPa | 0 mm | - | 227 W/m² | - |
| 1778073257 | 8.33° C | 58% | 1013.3 hPa | 0 mm | - | 373 W/m² | - |
| 1778072349 | 7.78° C | 65% | 1013.4 hPa | 0 mm | - | 248 W/m² | - |
| 1778072047 | 7.78° C | 63% | 1013.2 hPa | 0 mm | - | 225 W/m² | - |
| 1778070231 | 7.22° C | 69% | 1013.7 hPa | 0 mm | - | 154 W/m² | - |
| 1778069323 | 6.67° C | 73% | 1013.4 hPa | 0 mm | - | 175 W/m² | - |
| 1778068416 | 6.67° C | 74% | 1013.2 hPa | 0 mm | - | 103 W/m² | - |
| 1778068114 | 6.67° C | 76% | 1013 hPa | 0 mm | - | 75 W/m² | - |
| 1778067510 | 6.67° C | 76% | 1012.8 hPa | 0 mm | - | 78 W/m² | - |
| 1778067207 | 6.67° C | 81% | 1012.8 hPa | 0 mm | - | 60 W/m² | - |
| 1778066298 | 3.89° C | 85% | 1012.3 hPa | 0 mm | - | 32 W/m² | - |
| 1778065996 | 3.89° C | 85% | 1012.1 hPa | 0 mm | - | 25 W/m² | - |
| 1778065390 | 3.89° C | 84% | 1012.1 hPa | 0 mm | - | 13 W/m² | - |
| 1778064481 | 3.89° C | 83% | 1011.7 hPa | 0 mm | - | 9 W/m² | - |
* Rain latest hour (hover to see other rain measurements)
** Current wind speed in m/s (hover to see current wind gust speed)